Location: Coupvray
(48.8929°N, 2.7967°E)
Time: 09:44:05
(UTC+00:00)

Altair 2 - Pass Details

Date: 20 January 2021
Orbit: 837 x 949 km, 90.2° (Epoch: 26 February)

Event Time Altitude Azimuth Distance (km) Brightness Sun altitude
Rises 17:40:05 0° 159° (SSE) 3,395 10.8 -11.7°
Reaches altitude 10° 17:42:31 10° 154° (SSE) 2,456 10.0 -12.1°
Maximum altitude 17:47:47 49° 81° (E) 1,069 7.8 -13.0°
Drops below altitude 10° 17:53:04 10° 8° (N) 2,466 9.9 -13.8°
Sets 17:55:31 0° 3° (N) 3,410 10.7 -14.2°
